Flag for U.S.A. Weather past 2 weeks in Pueblo, Colorado, U.S.A.

Now
55 °F

Light rain. Cloudy.


Feels Like: 50 °F
Forecast: 49 / 60 °F
Wind: 18 mph from Southeast

Location: Pueblo Memorial Airport

Current Time: May 5, 2015 at 11:18:12 AM

Latest Report: May 5, 2015 at 10:53 AM


Visibility: 10 mi

Pressure: 29.80 "Hg

Humidity: 90%

Dew point: 52 °F

Location of PuebloLocation

Historic Weather in Pueblo — Graph

°F

Pueblo temperature yesterday

Maximum temperature yesterday: 66 °F (at 1:53 PM)
Minimum temperature yesterday: 54 °F (at 11:53 PM)
Average temperature yesterday: 59 °F

Past Weeks' High & Low Weather Summary

 TemperatureHumidityPressure
High81 °F (Apr 30, 1:53 PM)100% (May 5, 7:02 AM)30.30 "Hg (May 5, 7:02 AM)
Low35 °F (Apr 21, 5:53 AM)12% (Apr 25, 3:53 PM)29.47 "Hg (Apr 24, 1:53 PM)
Average56 °F58%29.86 "Hg
* Reported Apr 20 9:53 AM — May 5 9:53 AM, Pueblo, Weather by CustomWeather, © 2015

Note: Actual official high and low records may vary slightly from our data, if they occured in-between our weather recording intervals... More about our weather records

Advertising

Pueblo weather history for previous 24 hours

 ConditionsComfort  
Time TempWeatherWind HumidityBarometerVisibility
9:53 AM
Tue, May 5
53 °FLight rain. Fog.18 mph96%29.81 "Hg3 mi
8:53 AM51 °FLight rain. Fog.15 mph100%29.83 "Hg5 mi
8:00 AM50 °FRain. Fog.14 mph100%29.94 "Hg1 mi
7:02 AM52 °FLight rain. Fog.13 mph100%29.94 "Hg2 mi
6:53 AM52 °FFog.13 mph97%29.84 "Hg3 mi
5:53 AM52 °FMostly cloudy.9 mph97%29.83 "Hg9 mi
4:53 AM52 °FFog.10 mph97%29.85 "Hg4 mi
3:53 AM52 °FLow clouds.9 mph97%29.87 "Hg7 mi
2:53 AM53 °FLow clouds.12 mph93%29.88 "Hg10 mi
1:53 AM53 °FLight rain. Low clouds.9 mph93%29.90 "Hg8 mi
12:53 AM53 °FMostly cloudy.12 mph89%29.92 "Hg10 mi
11:53 PM
Mon, May 4
54 °FOvercast.12 mph83%29.93 "Hg10 mi
10:53 PM55 °FPassing clouds.13 mph72%29.92 "Hg10 mi
9:53 PM56 °FMostly cloudy.6 mph75%29.93 "Hg10 mi
8:53 PM58 °FPassing clouds.3 mph65%29.90 "Hg10 mi
7:53 PM58 °FPassing clouds.7 mph65%29.88 "Hg10 mi
6:53 PM62 °FBroken clouds.13 mph56%29.86 "Hg10 mi
5:53 PM64 °FPassing clouds.9 mph54%29.87 "Hg10 mi
5:03 PM65 °FOvercast.13 mph52%29.99 "Hg10 mi
4:53 PM65 °FThundershowers. Mostly cloudy.13 mph52%29.87 "Hg10 mi
3:53 PM66 °FThundershowers. Broken clouds.16 mph50%29.87 "Hg10 mi
2:53 PM66 °FMostly cloudy.17 mph50%29.88 "Hg10 mi
1:53 PM66 °FBroken clouds.15 mph50%29.89 "Hg10 mi
12:53 PM65 °FPartly sunny.14 mph54%29.93 "Hg10 mi
11:53 AM64 °FPartly sunny.8 mph56%29.96 "Hg10 mi
Weather by CustomWeather, © 2015

See weather overviewHow to use our weather pages